Regional Weather Roundup
Issued by NWS

Home | Current Version | Previous Version | Text Only | Print | Product List | Glossary Off
Versions: 1 2 3 4 5 6 7 8 9 10 11 12 13 14 15 16 17 18 19 20 21 22 23 24 25 26 27 28

000
ASUS45 KSLC 210410
RWRUT

UTAH REGIONAL WEATHER ROUNDUP
NATIONAL WEATHER SERVICE SALT LAKE CITY UT
1000 PM MDT WED SEP 20 2017

UTZ001>011-023>025-210500-

NORTHERN UTAH

CITY           SKY/WX    TMP DP  RH WIND       PRES   REMARKS
BRIGHAM CITY   CLOUDY    58  37  44 N15G26    29.66S
HILL AFB       MOCLDY    59  39  47 N18       29.65R
LOGAN          MOCLDY    55  41  59 NW12      29.68F
OGDEN          MOCLDY    59  41  51 NW13      29.64R
SALT LAKE CITY CLOUDY    68  39  34 NW12      29.62R
TOOELE VALLEY  CLOUDY    61  43  51 NW15G22   29.69R
WENDOVER       CLOUDY    60  39  45 NW22G39   29.65R
HEBER CITY     MOCLDY    70  30  23 S10G25    29.69S
WEST JORDAN    CLOUDY    65  42  43 NW21      29.65R

$$

UTZ011>015-024>027-210500-

CENTRAL/NORTHEAST UTAH

CITY           SKY/WX    TMP DP  RH WIND       PRES   REMARKS
PROVO AIRPORT  PTCLDY    69  39  33 S16       29.66F
MOAB/CANYONLAN CLEAR     69  32  25 SW3       29.73F
DELTA          CLEAR     68  32  26 S22G29    29.71S
PRICE          PTCLDY    63  33  32 S6        29.78S
ROOSEVELT      MOCLDY    61  37  41 CALM      29.75F
VERNAL         CLOUDY    59  42  53 CALM      29.73F

$$

UTZ013>016-019>022-027-210500-

SOUTHERN UTAH

CITY           SKY/WX    TMP DP  RH WIND       PRES   REMARKS
BRYCE CANYON   CLEAR     58  31  35 S17G24    29.99S
CEDAR CITY     CLEAR     67  34  29 S29G36    29.83S
MILFORD        CLEAR     64  37  36 SE17      29.77S
ST GEORGE      MOCLDY    80  34  19 S15       29.73
HANKSVILLE     CLEAR     73  32  21 CALM      29.76R
BLANDING         N/A     65  26  23 S8        29.98S

$$

REGIONAL REPORTS     COLORADO/ARIZONA

CITY           SKY/WX    TMP DP  RH WIND       PRES   REMARKS
CRAIG, CO      CLEAR     54  35  48 E3        29.86S
GRAND JUNCTION CLEAR     65  30  27 SE9       29.79S
RIFLE, CO      CLEAR     67  27  22 S10       29.85S
MONTROSE, CO   CLEAR     64  29  26 SE8       29.93S
CORTEZ, CO     CLEAR     54  33  45 NE6       29.96R
PAGE, AZ       CLEAR     78  29  16 S6        29.81R
GRAND CANYON   CLEAR     60  36  40 SW10      30.04S
KINGMAN, AZ    CLEAR     68  41  37 SW9       29.84R
FLAGSTAFF, AZ  CLEAR     58  36  43 SW14      30.09S

$$

REGIONAL REPORTS    NEVADA/IDAHO/WYOMING

CITY           SKY/WX    TMP DP  RH WIND       PRES   REMARKS
LAS VEGAS, NV  CLEAR     85  40  20 S17G26    29.65S
ELY, NY        PTCLDY    65  35  33 S24G36    29.73S
ELKO, NV       RAIN      46  42  86 SW6       29.81R FOG
POCATELLO, ID  LGT RAIN  50  47  89 SW7       29.77S
BURLEY, ID     RAIN      47  46  97 SW6       29.75F
FORT BRIDGER,  CLOUDY    53  37  54 N5        29.81F
EVANSTON, WY   CLOUDY    53  35  50 N9        29.77S
ROCK SPRINGS,  CLOUDY    50  35  56 SE10      29.79F
KEMMERER, WY   LGT RAIN  48  36  61 N9        29.82R

$$




USA.gov is the U.S. government's official web portal to all federal, state and local government web resources and services.